FENGYUN 1C DEB

Satellite information

Favourite Embed

Satellite Type and Status

DEBRISIN ORBIT

Key statistics

Satellite FENGYUN 1C DEB at a glance.

Uptime

9715

Days in orbit

Revolutions

≈ 14.3

Per day

Orbit

SSO

Sun Synchronous Orbit

Inclination

98.5

Latest

Satellite identification and parameters

Extended collection of information and parameters for FENGYUN 1C DEB.

Object identification

Identified? True

Debris? True

Object name: FENGYUN 1C DEB

International designator: 1999-025FQ

Object number (NORAD): 29870

Object ID (CCSDS): 29870

Country: PEOPLES REPUBLIC OF CHINA (PRC)

Current information (Y/N): Y

RCS size: SMALL

Orbital parameters

Period: 100.771 minutes

Inclination: 98.46 deg

SMA: 7173.278 km

Apoapsis: 881.094 km

Periapsis: 709.193 km

RAAN: 317.1465 deg

Eccentricy: 0.01198203

Argument of periapsis: 193.9633 deg

Mean anomaly: 182.8629 deg

Mean motion: 14.2898024 rev/day

Mean motion (dot): 0.00000197 rev/day2

B* drag term: 0.000087895435 1/REarth

Two-line elements (TLE)

Creation date: Dec. 12, 2025, 10:14 a.m.

Reference frame: TEME

Reference center: EARTH

Epoch: Dec. 12, 2025, 5:06 a.m. UTC

TLE line 0: 0 FENGYUN 1C DEB

TLE line 1: 1 29870U 99025FQ 25346.21267296 .00000197 00000-0 87895-4 0 9994

TLE line 2: 2 29870 98.4600 317.1465 0119820 193.9633 182.8629 14.28980240985867

Live tracking on map

Real-time ground track for satellite FENGYUN 1C DEB.

In-orbit conjunctions

A list of the most updated potential collisions computed for object FENGYUN 1C DEB.

Target Orbit TCA Probability of collision Miss distance Type
COSMOS 2251 DEB LEO 2025-05-25 23:12:42 0.0001304615 120.0 (m) DEBRIS
ATLAS H R/B LEO 2025-04-26 05:00:27 0.0001204857 988.0 (m) ROCKET BODY
SCOUT X-4 DEB LEO 2024-09-25 13:25:04 0.0008209719 774.0 (m) DEBRIS
SL-14 DEB LEO 2024-09-22 23:05:13 0.0001346157 90.0 (m) DEBRIS

Associated space launch

Chinese polar orbiting meteorological satellite

FENGYUN 1C DEB was lifted into orbit during the mission ‘Long March 4B | Feng Yun 1C’, on board a Long March 4B space rocket.

The launch took place on May 10, 1999, 1:33 a.m. from Launch Complex 7.

For more information about the launch, click the button.

Launch to space Long March 4B | Feng Yun 1C
Long March 4B | Feng Yun 1C

Agency: N/A

Status: Launch Successful

Launch date: May 10, 1999, 1:33 a.m. UTC

Rocket: Long March 4B

Launch pad: Launch Complex 7

Location: Taiyuan Satellite Launch Center, People's Republic of China

...

Latest news about this satellite

There are no fresh news available about this satellite. Check back as we update our databases every day.


Newsletter sign-up

Weekly statistics, charts and insights to help you stay on top of the space industry.